This is the latest recevied weather packets stored in our database for station/object K5VP. If no packets are shown the sender has not sent any weather packets the latest 10 day(s).
| Time | Temp. | Humidity | Pressure | Rain* | Wind** | Luminosity | Snow |
|---|---|---|---|---|---|---|---|
| 1777573414 | 16.67° C | 45% | 1018.9 hPa | 0 mm | - | - | - |
| 1777573097 | 16.67° C | 45% | 1018.7 hPa | 0 mm | - | - | - |
| 1777572780 | 16.67° C | 43% | 1018.6 hPa | 0 mm | - | - | - |
| 1777572463 | 16.11° C | 44% | 1018.5 hPa | 0 mm | - | - | - |
| 1777572162 | 16.11° C | 45% | 1018.6 hPa | 0 mm | - | - | - |
| 1777571848 | 16.11° C | 44% | 1018.5 hPa | 0 mm | - | - | - |
| 1777571535 | 16.11° C | 44% | 1018.6 hPa | 0 mm | - | - | - |
| 1777571234 | 16.11° C | 46% | 1018.5 hPa | 0 mm | - | - | - |
| 1777570930 | 16.11° C | 44% | 1018.7 hPa | 0 mm | - | - | - |
| 1777570633 | 16.11° C | 43% | 1018.9 hPa | 0 mm | - | - | - |
| 1777570335 | 16.11° C | 43% | 1018.9 hPa | 0 mm | - | - | - |
| 1777570035 | 16.11° C | 43% | 1019 hPa | 0 mm | - | - | - |
| 1777569725 | 16.11° C | 44% | 1019.1 hPa | 0 mm | - | - | - |
| 1777569428 | 16.11° C | 43% | 1019.2 hPa | 0 mm | - | - | - |
| 1777569125 | 16.11° C | 43% | 1019.4 hPa | 0 mm | - | - | - |
| 1777568810 | 16.11° C | 43% | 1019.4 hPa | 0 mm | - | - | - |
| 1777568499 | 16.11° C | 43% | 1019.6 hPa | 0 mm | - | - | - |
| 1777568203 | 16.11° C | 43% | 1019.6 hPa | 0 mm | - | - | - |
| 1777567904 | 16.11° C | 42% | 1019.8 hPa | 0 mm | - | - | - |
| 1777567582 | 16.11° C | 44% | 1019.8 hPa | 0 mm | - | - | - |
| 1777567278 | 16.11° C | 46% | 1019.5 hPa | 0 mm | - | - | - |
| 1777566981 | 15.56° C | 42% | 1019.5 hPa | 0 mm | - | - | - |
| 1777566666 | 15.56° C | 43% | 1019.5 hPa | 0 mm | - | - | - |
| 1777566361 | 15.56° C | 44% | 1019.5 hPa | 0 mm | - | - | - |
| 1777566058 | 15.56° C | 43% | 1019.5 hPa | 0 mm | - | - | - |
* Rain latest hour (hover to see other rain measurements)
** Current wind speed in m/s (hover to see current wind gust speed)